Location: Newark
(39.6867°N, 100.6772°W)
Time: 22:33:42
(UTC+00:00)

Explorer 11/Cluster Stage 4 - Pass Details

Date: 27 October 2019
Orbit: 467 x 1259 km, 28.8° (Epoch: 17 November)

Event Time Altitude Azimuth Distance (km) Brightness Sun altitude
Rises 12:24:01 0° 225° (SW) 3,177 9.4 -8.6°
Reaches altitude 10° 12:27:44 10° 201° (SSW) 2,071 8.6 -7.9°
Maximum altitude 12:30:12 14° 170° (S) 1,705 8.6 -7.4°
Drops below altitude 10° 12:32:28 10° 138° (SE) 1,862 9.4 -7.0°
Sets 12:35:30 0° 111° (ESE) 2,641 11.5 -6.4°
